Tracking 19562 objects as of 22-Mar-2019
HD Live streaming from Space Station
objects crossing your sky now

COSMOS 2490

Track COSMOS 2490 now!
10-day predictions
COSMOS 2490 is classified as:


NORAD ID: 39485
Int'l Code: 2013-076C
Perigee: 1,484.2 km
Apogee: 1,518.8 km
Inclination: 82.5 °
Period: 115.9 minutes
Semi major axis: 7872 km
RCS: Unknown
Launch date: December 25, 2013
Source: Commonwealth of Independent States (former USSR) (CIS)
Launch site: PLESETSK MISSILE AND SPACE COMPLEX (PKMTR)

COSMOS 2488 is a Russian military satellite apparently designed to relay messages between military users posted in remote areas.
aabbcc
Your satellite tracking list
Your tracking list is empty




NASA's NSSDC Master Catalog

Two Line Element Set (TLE):
1 39485U 13076C   19080.72622251 +.00000025 +00000-0 +11054-3 0  9992
2 39485 082.4871 016.5197 0022014 111.4138 248.9252 12.42897126237587
Source of the keplerian elements: AFSPC